This is the latest recevied weather packets stored in our database for station/object DG6YGE-6. If no packets are shown the sender has not sent any weather packets the latest 10 day(s).
| Time | Temp. | Humidity | Pressure | Rain* | Wind** | Luminosity | Snow |
|---|---|---|---|---|---|---|---|
| 1777475950 | 15.56° C | 40% | 1026.3 hPa | 0 mm | - | 455 W/m² | - |
| 1777475350 | 15.56° C | 39% | 1026.4 hPa | 0 mm | - | 478 W/m² | - |
| 1777474750 | 15.56° C | 39% | 1026.6 hPa | 0 mm | - | 500 W/m² | - |
| 1777474150 | 15.56° C | 39% | 1026.5 hPa | 0 mm | - | 517 W/m² | - |
| 1777473550 | 15.56° C | 39% | 1026.5 hPa | 0 mm | - | 540 W/m² | - |
| 1777472950 | 15.56° C | 41% | 1026.5 hPa | 0 mm | - | 561 W/m² | - |
| 1777472350 | 15.56° C | 40% | 1026.5 hPa | 0 mm | - | 578 W/m² | - |
| 1777471750 | 15.56° C | 39% | 1026.6 hPa | 0 mm | - | 596 W/m² | - |
| 1777471150 | 15.56° C | 40% | 1026.6 hPa | 0 mm | - | 613 W/m² | - |
| 1777470550 | 15.56° C | 40% | 1026.5 hPa | 0 mm | - | 629 W/m² | - |
| 1777469950 | 15° C | 41% | 1026.7 hPa | 0 mm | - | 643 W/m² | - |
| 1777469350 | 15° C | 41% | 1026.4 hPa | 0 mm | - | 657 W/m² | - |
| 1777468750 | 15° C | 40% | 1026.7 hPa | 0 mm | - | 672 W/m² | - |
| 1777468150 | 15° C | 41% | 1026.5 hPa | 0 mm | - | 682 W/m² | - |
| 1777467550 | 15° C | 41% | 1026.4 hPa | 0 mm | - | 692 W/m² | - |
| 1777466950 | 15° C | 40% | 1026.5 hPa | 0 mm | - | 704 W/m² | - |
| 1777466350 | 15° C | 42% | 1026.7 hPa | 0 mm | - | 710 W/m² | - |
| 1777465750 | 15° C | 40% | 1027 hPa | 0 mm | - | 719 W/m² | - |
| 1777465150 | 14.44° C | 41% | 1026.9 hPa | 0 mm | - | 727 W/m² | - |
| 1777464550 | 14.44° C | 40% | 1026.9 hPa | 0 mm | - | 732 W/m² | - |
| 1777463950 | 14.44° C | 40% | 1026.8 hPa | 0 mm | - | 733 W/m² | - |
| 1777463350 | 15° C | 42% | 1026.9 hPa | 0 mm | - | 737 W/m² | - |
| 1777462750 | 14.44° C | 42% | 1027 hPa | 0 mm | - | 734 W/m² | - |
| 1777462150 | 14.44° C | 42% | 1026.9 hPa | 0 mm | - | 743 W/m² | - |
| 1777461550 | 14.44° C | 43% | 1026.9 hPa | 0 mm | - | 744 W/m² | - |
* Rain latest hour (hover to see other rain measurements)
** Current wind speed in m/s (hover to see current wind gust speed)